TimeHST,TemperatureF,Dew PointF,Humidity,Sea Level PressureIn,VisibilityMPH,Wind Direction,Wind SpeedMPH,Gust SpeedMPH,PrecipitationIn,Events,Conditions,WindDirDegrees,DateUTC
12:53 AM,72.0,61.0,68,30.06,10.0,East,5.8,-,N/A,,Mostly Cloudy,80,2012-12-15 10:53:00
1:27 AM,71.6,60.8,69,30.04,10.0,East,4.6,-,N/A,,Partly Cloudy,100,2012-12-15 11:27:00
1:53 AM,71.1,60.1,68,30.04,10.0,ESE,6.9,-,N/A,,Clear,110,2012-12-15 11:53:00
2:53 AM,71.1,61.0,70,30.03,10.0,ESE,8.1,-,N/A,,Clear,110,2012-12-15 12:53:00
3:53 AM,72.0,60.1,66,30.03,10.0,SE,9.2,-,N/A,,Clear,130,2012-12-15 13:53:00
4:53 AM,72.0,57.0,59,30.04,10.0,East,4.6,-,N/A,,Clear,90,2012-12-15 14:53:00
5:53 AM,70.0,57.0,63,30.05,10.0,NNE,4.6,-,N/A,,Clear,20,2012-12-15 15:53:00
6:53 AM,68.0,55.9,65,30.07,10.0,ENE,4.6,-,N/A,,Clear,60,2012-12-15 16:53:00
7:53 AM,71.1,57.0,61,30.09,10.0,ENE,3.5,-,N/A,,Clear,70,2012-12-15 17:53:00
8:53 AM,79.0,59.0,50,30.09,10.0,Calm,Calm,-,N/A,,Clear,0,2012-12-15 18:53:00
9:53 AM,78.1,62.1,58,30.10,10.0,West,3.5,-,N/A,,Clear,260,2012-12-15 19:53:00
10:53 AM,79.0,63.0,58,30.07,10.0,West,8.1,-,N/A,,Clear,270,2012-12-15 20:53:00
11:53 AM,80.1,64.0,58,30.06,10.0,WSW,10.4,-,N/A,,Clear,250,2012-12-15 21:53:00
12:53 PM,79.0,64.0,60,30.04,10.0,WSW,8.1,-,N/A,,Clear,240,2012-12-15 22:53:00
1:53 PM,80.1,64.0,58,30.01,10.0,SW,9.2,-,N/A,,Clear,230,2012-12-15 23:53:00
2:53 PM,80.1,64.0,58,30.00,10.0,WSW,8.1,-,N/A,,Clear,240,2012-12-16 00:53:00
3:53 PM,79.0,64.0,60,30.00,10.0,West,8.1,-,N/A,,Partly Cloudy,260,2012-12-16 01:53:00
4:53 PM,78.1,64.9,64,30.02,10.0,WSW,4.6,-,N/A,,Scattered Clouds,250,2012-12-16 02:53:00
5:53 PM,77.0,64.0,64,30.04,10.0,NNW,3.5,-,N/A,,Partly Cloudy,330,2012-12-16 03:53:00
6:53 PM,77.0,63.0,62,30.04,10.0,NNW,4.6,-,N/A,,Mostly Cloudy,340,2012-12-16 04:53:00
7:53 PM,77.0,63.0,62,30.05,10.0,Calm,Calm,-,N/A,,Clear,0,2012-12-16 05:53:00
8:53 PM,73.9,61.0,64,30.06,10.0,SE,3.5,-,N/A,,Clear,130,2012-12-16 06:53:00
9:53 PM,73.9,61.0,64,30.08,10.0,ESE,5.8,-,N/A,,Clear,120,2012-12-16 07:53:00
10:53 PM,73.0,60.1,64,30.08,10.0,ESE,5.8,-,N/A,,Clear,120,2012-12-16 08:53:00
11:53 PM,72.0,59.0,64,30.07,10.0,SE,8.1,-,N/A,,Clear,140,2012-12-16 09:53:00